This demonstration page uses our WeatherBlox Daily Observations layout. Learn more.

Left ArrowRight Arrow

41.86663, -103.66717

Hourly Observations for November 17, 2016

Temp ( °F °C ) Dew Point ( °F °C ) Humidity (%) Winds ( mph kmh ) Pressure ( in mb ) Visibility ( mi km ) Precip ( " mm )
12:53 am 00:53 Clear 40 4.4 28 -2.2 63 63 NNW 5 7 29.67 1005 10 16 N/A
1:53 am 01:53 Clear 38 3.3 27 -2.8 65 65 NNE 6 9 29.67 1005 10 16 N/A
2:53 am 02:53 Clear 36 2.2 25 -3.9 64 64 NNE 7 11 29.67 1005 10 16 N/A
3:53 am 03:53 Clear 36 2.2 25 -3.9 64 64 ENE 8 13 29.70 1006 10 16 N/A
4:53 am 04:53 Clear 37 2.8 25 -3.9 62 62 VRB 3 6 29.70 1006 10 16 N/A
5:53 am 05:53 Mostly Clear 36 2.2 25 -3.9 64 64 NE 6 9 29.72 1006 10 16 N/A
6:53 am 06:53 Sunny 35 1.7 25 -3.9 67 67 NE 9 15 29.76 1008 10 16 N/A
7:53 am 07:53 Mostly Sunny 35 1.7 25 -3.9 67 67 NE 9 15 29.77 1008 10 16 N/A
8:53 am 08:53 Sunny 35 1.7 25 -3.9 67 67 NE 10 17 29.77 1008 10 16 N/A
9:53 am 09:53 Cloudy 36 2.2 24 -4.4 62 62 NNE 15 24 29.75 1008 10 16 N/A
10:53 am 10:53 Cloudy 34 1.1 24 -4.4 67 67 N 14 22 29.80 1009 10 16 N/A
11:53 am 11:53 Cloudy 33 0.6 24 -4.4 70 70 NNE 20 31 29.78 1009 10 16 N/A
12:53 pm 12:53 Cloudy 33 0.6 24 -4.4 70 70 N 17 28 29.80 1009 10 16 N/A
1:33 pm 13:33 Cloudy 34 1.1 23 -5 64 64 N 25 41 29.85 1011 10 16 N/A
1:53 pm 13:53 Cloudy 33 0.6 23 -5 66 66 N 28 44 29.78 1008 10 16 N/A
2:53 pm 14:53 Cloudy 32 undefined 23 -5 69 69 N 21 33 29.85 1011 10 16 N/A
3:31 pm 15:31 Windy with Snow Likely 31 -0.6 24 -4.4 76 76 N 23 37 29.94 1014 2 3 N/A
3:51 pm 15:51 Windy with Snow Likely 30 -1 25 -4 80 80 N 23 37 29.94 1014 1 2 N/A
3:53 pm 15:53 Windy with Snow Likely 30 -1.1 25 -3.9 82 82 N 23 37 29.89 1012 1 1 N/A
4:14 pm 16:14 Mostly Cloudy with Snow 30 -1 27 -3 86 86 N 22 35 29.94 1014 1 1 N/A
4:24 pm 16:24 Mostly Cloudy with Light Snow 30 -1 27 -3 86 86 N 24 39 29.94 1014 1 2 N/A
4:35 pm 16:35 Windy with Snow Likely 30 -1.1 25 -3.9 82 82 N 26 43 30.00 1016 3 5 0.01 0.25
4:44 pm 16:44 Windy with Snow Likely 30 -1 25 -4 80 80 N 25 41 30.03 1017 4 6 N/A
4:53 pm 16:53 Windy with Snow Likely 31 -0.6 25 -3.9 79 79 N 24 39 29.92 1013 4 6 0.01 0.25
5:14 pm 17:14 Windy with Snow Likely 30 -1 25 -4 80 80 N 21 33 30.03 1017 3 4 N/A
5:44 pm 17:44 Windy with Snow Likely 30 -1 25 -4 80 80 N 22 35 30.06 1018 3 5 N/A
5:53 pm 17:53 Windy with Snow Likely 31 -0.6 25 -3.9 79 79 N 21 33 29.97 1015 3 5 N/A
6:00 pm 18:00 Windy with Snow Likely 30 -1 25 -4 80 80 N 25 41 30.06 1018 3 4 N/A
6:27 pm 18:27 Windy with Snow Likely 30 -1.1 25 -3.9 82 82 N 21 33 30.06 1018 3 4 N/A
6:53 pm 18:53 Cloudy with Light Snow 30 -1.1 25 -3.9 82 82 N 17 28 30.01 1016 3 4 N/A
7:00 pm 19:00 Cloudy with Light Snow 30 -1 25 -4 80 80 NNW 15 24 30.09 1019 3 5 N/A
7:12 pm 19:12 Cloudy with Light Snow 30 -1 25 -4 80 80 N 18 30 30.09 1019 3 5 N/A
7:23 pm 19:23 Windy with Snow Likely 30 -1.1 25 -3.9 82 82 NNW 20 31 30.09 1019 3 4 N/A
7:53 pm 19:53 Windy with Snow Likely 30 -1.1 24 -4.4 79 79 N 22 35 30.04 1017 3 5 N/A
8:31 pm 20:31 Cloudy with Light Snow 30 -1.1 25 -3.9 82 82 NNW 16 26 30.12 1020 3 5 N/A
8:38 pm 20:38 Cloudy with Light Snow 30 -1 25 -4 80 80 NNW 14 22 30.12 1020 3 4 N/A
8:53 pm 20:53 Cloudy with Light Snow 30 -1.1 25 -3.9 82 82 NW 14 22 30.09 1019 2 3 N/A
9:41 pm 21:41 Cloudy with Light Snow 30 -1.1 25 -3.9 82 82 NW 15 24 30.21 1023 4 6 0.01 0.25
9:53 pm 21:53 Cloudy with Light Snow 29 -1.7 25 -3.9 85 85 NW 12 19 30.12 1020 4 6 0.01 0.25
10:07 pm 22:07 Cloudy with Light Snow 29 -1.7 23 -5 78 78 NW 18 30 30.21 1023 9 14 N/A
10:53 pm 22:53 Cloudy with Light Snow 29 -1.7 23 -5 78 78 NW 13 20 30.16 1021 7 11 N/A
11:42 pm 23:42 Cloudy with Light Snow 28 -2 21 -6 74 74 WNW 14 22 30.27 1025 9 14 N/A
11:53 pm 23:53 Cloudy with Light Snow 28 -2.2 21 -6.1 75 75 undefined N/A 30.20 1023 7 11 N/A

Powered by AerisWeather